Погода в Улькен-Нарыне

Казахстан     49°12′47″N   84°30′38″E
темп.,
°C
ветер,
м/с
пор.,
м/с
влажн.,
%
обл.,
%
осадки,
мм/ч
давл.,
гПа
погр.,
м
1 марта, пн
пн100:00−11ссз1278100 0.0 103221
03:00−10ссз1177100 0.0 103021
06:00−10ссз1289100 0.2 102925
09:00−9зсз1293100 0.4 102893
12:00−7сз2292100 1.0 1026247
15:00−7ссз2392100 0.4 1025227
18:00−7с2296100 0.9 102555
21:00−6с1296100 1.0 102545
2 марта, вт
вт200:00−6сз2396100 1.7 102592
03:00−7ссз2396100 0.6 1024104
06:00−6ссз1297100 1.9 102443
09:00−5ссз1296100 1.9 102496
12:00−4ссз2295100 3.2 1022186
15:00−3ссз2295100 0.6 1020176
18:00−4с1296100 0.8 102025
21:00−4сз1296100 0.1 101934
3 марта, ср
ср300:00−4сз1297100 0.6 101949
03:00−5сз1296100 0.7 101930
06:00−5ссз1296100 1.4 102036
09:00−5сз1295100 0.6 102190
12:00−3зсз348994 0.7 1022346
15:00−3зсз368550 0.0 1023346
18:00−10сз118835 0.0 102621
21:00−12св018144 0.0 102921
4 марта, чт
чт400:00−14всв017746 0.0 103121
03:00−15ссв117272 0.0 103121
06:00−16всв116639 0.0 103320
09:00−13св12670 0.0 103221
12:00−9ссв117017 0.0 103089
15:00−7с117646 0.0 102846
18:00−12зсз116365 0.0 102921
21:00−14св1160100 0.0 103021
5 марта, пт
пт500:00−14св125778 0.0 103021
03:00−15св226262 0.0 102821
06:00−13всв226481 0.0 102521
09:00−10св2272100 0.0 102257
12:00−6зсз3482100 0.2 1019128
15:00−4ссв2296100 2.6 1024134
18:00−5ссв1196100 3.2 102922
21:00−7всв019498 0.1 103321